Вернуться в каталог

COSMOS 2475

GLONASS

АктивенНавигацияMEO
NORAD 37869·PAYLOAD·🇷🇺 Russia

Запущен Nov 4, 2011 с Baikonur Cosmodrome

Loading…

Ближайшие Пролёты (ближайшие 24 часа)

TLE

СвежийSource: CelesTrak SupGP

Эпоха: Sep 13, 2026, 23:59 UTC

1 37869C 11064C   26256.99979167  .00000000  00000+0  00000+0 0  2567
2 37869  65.3388  69.9781 0024823 245.8426 147.9297  2.13101746    13

Отслеживайте COSMOS 2475 в реальном времени с AllMySat

Download on the App Store